Regional Weather Roundup
Issued by NWS

Home | Current Version | Previous Version | Text Only | Print | Product List | Glossary On
Versions: 1 2 3 4 5 6 7 8 9 10 11 12 13 14 15 16 17 18 19 20 21 22 23 24 25 26 27 28 29 30 31 32 33 34 35 36 37 38 39 40 41 42 43 44 45 46 47 48 49 50
000
ASUS43 KDTX 282301
RWRMI
MICHIGAN HOURLY REGIONAL WEATHER ROUNDUP
NATIONAL WEATHER SERVICE DETROIT/PONTIAC MI
700 PM EDT WED SEP 28 2016

NOTE: "FAIR" INDICATES FEW OR NO CLOUDS BELOW 12,000 FEET WITH NO
SIGNIFICANT WEATHER AND/OR OBSTRUCTION TO VISIBILITY.

MIZ047>049-052>055-059>063-066>070-074>076-081>083-290000-
SOUTHEAST LOWER MICHIGAN

CITY           SKY/WX    TMP DP  RH WIND       PRES   REMARKS
ADRIAN         CLOUDY    59  55  87 NE12      29.95R
ALMA           CLOUDY    59  57  92 N9G20     30.04R
ANN ARBOR      CLOUDY    58  55  90 N9        29.97R
BAD AXE        PTCLDY    63  57  80 E3G9      30.06R
CARO           PTCLDY    62  57  86 CALM      30.02R
DETROIT CITY   CLOUDY    60  59  96 N3        29.98R
DETROIT        LGT RAIN  59  56  89 E5        29.99R
FLINT          CLOUDY    59  54  83 NE6       30.01R THUNDER
GROSSE ILE     LGT RAIN  59  54  85 E3        29.97R
HILLSDALE      CLOUDY    54  52  94 NE6       29.94R
HOWELL         DRIZZLE   57  55  94 NE5       30.00R

CITY           SKY/WX    TMP DP  RH WIND       PRES   REMARKS
JACKSON        CLOUDY    57  56  96 NE8       29.98R
LAMBERTVILLE   CLOUDY    62  55  80 E3        29.94S
LANSING        LGT RAIN  57  51  80 NE8       30.02R
LAPEER         CLOUDY    63  57  81 NE3       30.01R
MASON          CLOUDY    57  54  89 NE6       30.00R
MONROE         LGT RAIN  60  57  89 SE5       29.95R
MT. CLEMENS    CLOUDY    63  58  81 N8        29.97R
PONTIAC        CLOUDY    59  55  87 N8        29.99R
PORT HURON     CLOUDY    63  54  72 NE5       30.00R
TRI CITIES     PTCLDY    59  55  87 N10       30.05R
MIDLAND        FAIR      57  54  89 N5        30.04S
TROY           CLOUDY    62  57  84 N5        30.00R
SAGINAW HB     MOCLDY    59  54  82 N6        30.02R
$$
MIZ043>046-050>051-056>058-064>065-071>073-077>080-290000-
SOUTHWEST LOWER MICHIGAN

CITY           SKY/WX    TMP DP  RH WIND       PRES   REMARKS
BATTLE CREEK   CLOUDY    57  54  89 NE10      29.98R
BENTON HARBOR  CLOUDY    61  48  62 VRB7      29.99R
BIG RAPIDS     CLOUDY    61  52  72 NE7       30.06R
COLDWATER      CLOUDY    56  53  89 NE7       29.96R
FREMONT        DRIZZLE   58  53  82 E6        30.06R
HOLLAND        LGT RAIN  58  52  80 N7        30.02R
GRAND RAPIDS   LGT RAIN  57  53  86 NE16      30.03R
IONIA          LGT RAIN  57  54  91 NE8       30.02R
KALAMAZOO      CLOUDY    57  50  77 N8        29.99R
LUDINGTON      MOCLDY    62  51  68 N9        30.08R
MARSHALL       CLOUDY    57  55  95 NE5       29.97R
MOUNT PLEASANT CLOUDY    58  55  88 N6        30.05R
MUSKEGON       CLOUDY    60  52  74 NE13      30.06R
SOUTH HAVEN    CLOUDY    59  53  79 NE15G25   29.99R
$$
MIZ016>042-290000-
NORTHERN LOWER MICHIGAN

CITY           SKY/WX    TMP DP  RH WIND       PRES   REMARKS
ALPENA         PTCLDY    64  53  67 NE10      30.14R
BEAVER ISLAND  CLEAR     61  55  81 CALM      30.18R
BELLAIRE       MOCLDY    63  52  68 N6        30.14R
CADILLAC       PTCLDY    61  50  68 NE9       30.11R
CHARLEVOIX     HAZE      63  48  58 NE7       30.19R VSB 1
FRANKFORT      CLEAR     64  52  65 N6        30.13R
GAYLORD        CLEAR     61  50  67 NE10      30.15R
GRAYLING       CLOUDY    61  49  64 E6        30.16R
HARBOR SPRINGS PTCLDY    62  52  70 NE5       30.17R HAZE
HOUGHTON LAKE  CLOUDY    55  51  86 N8        30.11S
MANISTEE       PTCLDY    64  52  64 NE7       30.10R
OSCODA         PTCLDY    59  55  88 NW5       30.09R
PELLSTON       CLEAR     63  50  62 NE6       30.18R
ROGERS CITY    CLEAR     63  56  79 NE3       30.16R
TRAVERSE CITY  PTCLDY    66  51  58 NE15G21   30.12R
$$
MIZ007>008-015-290000-
EASTERN UPPER MICHIGAN

CITY           SKY/WX    TMP DP  RH WIND       PRES   REMARKS
KINROSS        CLEAR     64  52  64 N5        30.20R
MACKINAC ISLAN CLEAR     62  52  69 NE7       30.18R
NEWBERRY       CLEAR     61  54  79 NE3       30.20R
S. S. MARIE    CLEAR     67  49  52 CALM      30.19R
MUNISING         N/A     60  56  86 N13       30.23R
$$
MIZ004>006-011>014-085-290000-
CENTRAL UPPER MICHIGAN

CITY           SKY/WX    TMP DP  RH WIND       PRES   REMARKS
MANISTIQUE     CLEAR     61  54  75 NE6       30.20R
ESCANABA       CLEAR     61  54  77 N7        30.20R
MENOMINEE        N/A     61  53  75 NE9       30.18
SAWYER-GWINN   MOCLDY    55  50  82 N10       30.24R
$$
MIZ001>003-009>011-084-290000-
WESTERN UPPER MICHIGAN

CITY           SKY/WX    TMP DP  RH WIND       PRES   REMARKS
IRON MOUNTAIN  MOCLDY    59  49  69 N8G18     30.21R
HOUGHTON       CLOUDY    56  49  77 N7        30.28R
COPPER HARBOR    N/A     58  52  80 E10       30.28R
IRONWOOD       CLOUDY    55  52  89 N6        30.29R
$$

ABBREVIATIONS USED IN REMARKS
   TC - TEMPERATURE IN CELSIUS
  WCI - WIND CHILL INDEX
   HX - HEAT INDEX
  VSB - VISIBILITY





USA.gov is the U.S. government's official web portal to all federal, state and local government web resources and services.